Regional Weather Roundup
Issued by NWS

Home | Current Version | Previous Version | Text Only | Print | Product List | Glossary On
Versions: 1 2 3 4 5 6 7 8 9 10 11 12 13 14 15 16 17 18 19 20 21 22 23 24 25 26 27 28 29 30 31 32 33 34 35 36 37 38 39 40 41 42 43 44 45 46 47 48 49 50
000
ASUS43 KLMK 251710
RWRKY
KENTUCKY REGIONAL WEATHER ROUNDUP
NATIONAL WEATHER SERVICE LOUISVILLE KY
100 PM EDT THU MAY 25 2017

NOTE "FAIR" INDICATES FEW OR NO CLOUDS BELOW 12,000 FEET
WITH NO SIGNIFICANT WEATHER AND/OR OBSTRUCTIONS TO VISIBILITY.

KYZ001>023-026-027-061>063-070>075-251800-
WESTERN AND SOUTH CENTRAL KENTUCKY

CITY           SKY/WX    TMP DP  RH WIND       PRES   REMARKS
PADUCAH        MOSUNNY   70  50  49 W9G22     29.74R
HENDERSON      CLOUDY    67  57  70 W10       29.70R
OWENSBORO      CLOUDY    65  56  72 W13       29.69R
HOPKINSVILLE   NOT AVBL
BOWLING GREEN  CLOUDY    66  56  70 W20       29.70R
GLASGOW        CLOUDY    59  55  87 W13G22    29.69R
$$

KYZ024-025-028>034-038-045-046-053-251800-
NORTH CENTRAL KENTUCKY

CITY           SKY/WX    TMP DP  RH WIND       PRES   REMARKS
LOUISVILLE/SDF CLOUDY    61  57  87 W20G26    29.59R
LOUISVILLE/LOU CLOUDY    60  58  92 NW18G24   29.59R
FORT KNOX      NOT AVBL
$$

KYZ035>037-039>044-047>052-055>060-089>105-251800-
NORTHEAST KENTUCKY

CITY           SKY/WX    TMP DP  RH WIND       PRES   REMARKS
LEXINGTON      LGT RAIN  59  55  87 W14G29    29.55R
COVINGTON      LGT RAIN  61  59  93 W15G25    29.49R
FRANKFORT      CLOUDY    59  55  87 MISG      29.54R
$$

KYZ054-064>069-076>088-106>120-251800-
SOUTHEAST KENTUCKY

CITY           SKY/WX    TMP DP  RH WIND       PRES   REMARKS
JACKSON        RAIN      54  54 100 MISG      29.56S FOG
LONDON         LGT RAIN  56  53  90 SW14G22   29.62R FOG
SOMERSET       RAIN      54  54 100 W14G24    29.65S
MIDDLESBORO    LGT RAIN  57  53  87 SW6       29.65S
MONTICELLO     CLOUDY    57  54  89 W22G28    29.68R
$$





USA.gov is the U.S. government's official web portal to all federal, state and local government web resources and services.